Regional Weather Roundup
Issued by NWS Upton, NY

Current Version | Previous Version | Text Only | Print | Product List | Glossary On
Versions: 1 2 3 4 5 6 7 8 9 10 11 12 13 14 15 16 17 18 19 20 21 22 23 24 25 26 27 28 29 30 31 32 33 34 35 36 37 38 39 40 41 42 43 44 45 46 47 48 49 50
815
ASUS41 KOKX 220505
RWROKX

Regional Weather Roundup
National Weather Service New York NY
100 AM EDT SUN APR 22 2018

Note: "FAIR" indicates few or no clouds below 12,000 feet with no
significant weather and/or obstructions to visibility.

NYZ071-072-176-178-NJZ106-104-220600-
New York City Metro Area

CITY           SKY/WX    TMP DP  RH WIND       PRES   REMARKS
Central Park   FAIR      52  19  27 VRB3      30.39R
Bronx Bot Gard   N/A     50  21  32 NW9       30.38R
Bronx Lehman C   N/A     50  21  32 NW7         N/A
LaGuardia Arpt FAIR      53  21  28 NW13      30.35R
Queens College   N/A     52  21  30 N9          N/A
Kennedy Intl   MOCLDY    50  21  32 NW12      30.37R
Breezy Point     N/A     52 N/A N/A N8          N/A
Brooklyn Coll    N/A     54  21  28 NW8         N/A
Staten Island    N/A     52  23  32 N6          N/A
Newark/Liberty MOCLDY    52  24  33 N10       30.36R
Teterboro      FAIR      49  21  33 NW8       30.36R
$$

NYZ177-179-078>081-220600-
Long Island New York

CITY           SKY/WX    TMP DP  RH WIND       PRES   REMARKS
Jones Beach      N/A     46 N/A N/A NE7         N/A
Wantagh          N/A     45  32  61 NE3         N/A
Hempstead        N/A     48  30  49 NE3       30.38R
Matinecock Pt    N/A     48 N/A N/A NE7         N/A
Farmingdale    FAIR      46  26  45 NE5       30.35R
MacArthur/ISP  FAIR      42  32  67 N9        30.34S
Stony Brook      N/A     46  30  53 NW2         N/A
Shirley        FAIR      42  30  62 N5        30.35R
Mt Sinai Harb    N/A    N/A N/A N/A NW3         N/A
Westhampton    FAIR      28  23  81 N5        30.36R WCI  23
East Hampton   FAIR      31  27  86 NW3       30.33R
Southold         N/A     45  32  61 W5          N/A
Montauk          N/A     46  37  71 W5        30.33S
$$

NYZ052-065-067-220600-
Hudson Valley

CITY           SKY/WX    TMP DP  RH WIND       PRES   REMARKS
White Plains   FAIR      44  18  35 N6        30.35R
Larchmont Harb   N/A     50 N/A N/A N5          N/A
Croton On Huds   N/A     45 N/A N/A NW5         N/A
Somers           N/A     43  19  39 N5          N/A
Brewster         N/A     41  19  42 N5          N/A
Newburgh       CLEAR     39  23  52 CALM      30.38R
Montgomery     FAIR      36  23  59 SE3       30.36R
Otisville        N/A     43  19  39 NW5         N/A
Warwick          N/A     36  27  69 W3          N/A
Suffern          N/A     46  18  31 N6          N/A
Poughkeepsie   FAIR      36  25  64 CALM      30.37R
Albany         FAIR      42  19  39 NW6       30.37R
$$

NJZ001-105-106-008-010-013-015-019>022-104-220600-
New Jersey

CITY           SKY/WX    TMP DP  RH WIND       PRES   REMARKS
Newark/Liberty MOCLDY    52  24  33 N10       30.36R
Teterboro      FAIR      49  21  33 NW8       30.36R
Caldwell       FAIR      49  20  31 CALM      30.37R
Somerville     FAIR      40  29  64 N5        30.36R
Linden         FAIR      51  20  28 CALM      30.37R
Perth Amboy      N/A     52 N/A N/A N9          N/A
Sussex         FAIR      35  26  69 CALM      30.38R
Andover          N/A     36  29  75 CALM      30.38R
Trenton        FAIR      44  28  53 CALM      30.38R
Millville      FAIR      37  34  89 CALM      30.38R
Atlantic City  FAIR      44  38  79 W5        30.37S
Wrightstown    FAIR      40  31  69 SW3       30.36
Toms River     FAIR      35  30  82 SW3       30.39R
Belmar         FAIR      47  24  40 W5        30.38R
$$

PAZ047>061-062-071-220600-
Eastern Pennsylvania

CITY           SKY/WX    TMP DP  RH WIND       PRES   REMARKS
Philadelphia   CLOUDY    46  33  60 NE5       30.39R
Allentown      FAIR      50  21  32 NW3       30.39R
Scranton       FAIR      36  24  62 CALM      30.39R
$$

CTZ002-004>006-009-010-012-RIZ004-006-007-MAZ004-011-015-220600-
Southern New England

 In CT

CITY           SKY/WX    TMP DP  RH WIND       PRES   REMARKS
Bradley Intl   FAIR      44  19  36 NW7       30.34R
Hartford       FAIR      48  19  31 N5        30.34R
Danbury        FAIR      43  18  36 CALM      30.37R
Wtrbury/Oxford FAIR      44  18  35 NW8       30.35R
Norwalk Harbor   N/A     46 N/A N/A NW5         N/A
Bridgeport     FAIR      48  19  31 NW9       30.35R
Meriden        FAIR      47  19  33 NW8       30.34R
New Haven      FAIR      46  19  34 CALM      30.35R
Chester        FAIR      46  18  31 NW8       30.33R
Groton         FAIR      46  20  35 N7        30.32R
Willimantic    FAIR      43  26  51 CALM      30.34R

 In RI

CITY           SKY/WX    TMP DP  RH WIND       PRES   REMARKS
Providence     FAIR      47  22  37 NW3       30.32R
Block Island   FAIR      45  31  58 NW6       30.32R
Westerly       FAIR      49  22  34 N8        30.32S

In MA

CITY           SKY/WX    TMP DP  RH WIND       PRES   REMARKS
Boston         FAIR      47  19  33 N6        30.32R
Worcester      FAIR      43  16  33 NW7       30.31R
Westfield      FAIR      38  28  67 CALM      30.34R
Provincetown   FAIR      42  36  79 N7        30.30R
Nantucket      FAIR      40  40 100 NW7       30.29R
$$

ANZ330-335-338-340-345-350-353-355-220600-
Coastal Marine Observations


STATION/POSITION TIME  SKY/WX   TEMP    WIND        PRES    VSBY  WAVE
                                AIR SEA DIR/SP/G                  HT/PER
                 (UTC)          (F)     (DEG/KT/KT) (MB)    (MI)  (FT/S)
NY Harb Entrance 0450            49 44  320/  8/  8 1028.0          1/ 4
20 S Fire Island 0450            47 43  320/ 10/ 12 1027.3          2/ 4
23 SSW Montauk P 0450            44 43  270/ 10/ 12 1027.1          3/ 5
15 E Barnegat Li 0430               44                N/A           2/ 4
Hudson Canyon    0450            46 44  240/ 16/ 17 1026.9          3/ 4
Kings Point      0436            49 46   40/  6/  8 1028.8
Execution Rocks  NOT AVBL
Western LI Sound NOT AVBL
Central LI Sound 0445            48     270/  6/  8   N/A           1
Robbins Reef     0436            53     330/ 10/ 16 1028.6
$$


>>>>>>>>>>>>>>>>>>>>>>>>>>>> KEY <<<<<<<<<<<<<<<<<<<<<<<<<<<
>                                                          <
>     SKY/WX - Sky Condition/Present Weather               <
>     TMP    - Temperature in Fahrenheit                   <
>     DP     - Dew Point in Fahrenheit                     <
>     RH     - Relative Humidity in Percent                <
>     WIND   - Direction (from) and Speed in MPH           <
>     PRES   - Mean Sea Level Pressure (inches of Hg)      <
>     WCI    - Wind Chill Index                            <
>     VSB    - Visibility in Miles                         <
>     HX     - Heat Index                                  <
>     TC     - Temperature in Celsius                      <
>     VRB    - Varibale Wind Direction                     <
>                                                          <
>>>>>>>>>>>>>>>>>>>>>>>>>>>> KEY <<<<<<<<<<<<<<<<<<<<<<<<<<<




USA.gov is the U.S. government's official web portal to all federal, state and local government web resources and services.